• In Russia
  • List of Countries
  • For 7 days
  • Water Temperature
  • Weather Map
  • Weather Widgets
  • user-avatar
    Login

    Hourly Weather Pabna

    Today, 26 January, Sunday

    Time Temperature Precipitation Wind Pressure Humidity
    00:00 +15°C° 0 mm 1 mps 758 mmHg 51%
    01:00 +15°C° 0 mm 1 mps 758 mmHg 53%
    02:00 +14°C° 0 mm 1 mps 757 mmHg 54%
    03:00 +14°C° 0 mm 1 mps 757 mmHg 56%
    04:00 +14°C° 0 mm 1 mps 757 mmHg 57%
    05:00 +13°C° 0 mm 1 mps 757 mmHg 59%
    06:00 +13°C° 0 mm 2 mps 757 mmHg 65%
    07:00 +15°C° 0 mm 2 mps 758 mmHg 61%
    08:00 +16°C° 0 mm 2 mps 759 mmHg 57%
    09:00 +18°C° 0 mm 3 mps 760 mmHg 53%
    10:00 +20°C° 0 mm 3 mps 759 mmHg 48%
    11:00 +21°C° 0 mm 3 mps 759 mmHg 44%
    12:00 +24°C° 0 mm 3 mps 758 mmHg 40%
    13:00 +24°C° 0 mm 3 mps 757 mmHg 37%
    14:00 +25°C° 0 mm 3 mps 757 mmHg 34%
    15:00 +25°C° 0 mm 4 mps 756 mmHg 32%
    16:00 +24°C° 0 mm 3 mps 756 mmHg 35%
    17:00 +21°C° 0 mm 3 mps 755 mmHg 39%
    18:00 +20°C° 0 mm 2 mps 755 mmHg 43%
    19:00 +19°C° 0 mm 2 mps 756 mmHg 45%
    20:00 +18°C° 0 mm 2 mps 756 mmHg 48%
    21:00 +18°C° 0 mm 2 mps 757 mmHg 50%
    22:00 +17°C° 0 mm 2 mps 757 mmHg 51%
    23:00 +17°C° 0 mm 2 mps 757 mmHg 53%

    Tomorrow, 27 January, Monday

    Time Temperature Precipitation Wind Pressure Humidity
    00:00 +16°C° 0 mm 1 mps 757 mmHg 55%
    01:00 +16°C° 0 mm 2 mps 756 mmHg 57%
    02:00 +15°C° 0 mm 2 mps 756 mmHg 59%
    03:00 +15°C° 0 mm 2 mps 756 mmHg 62%
    04:00 +15°C° 0 mm 2 mps 756 mmHg 64%
    05:00 +14°C° 0 mm 2 mps 756 mmHg 67%
    06:00 +14°C° 0 mm 2 mps 756 mmHg 70%
    07:00 +15°C° 0 mm 2 mps 757 mmHg 66%
    08:00 +17°C° 0 mm 2 mps 758 mmHg 62%
    09:00 +19°C° 0 mm 3 mps 759 mmHg 58%
    10:00 +20°C° 0 mm 3 mps 758 mmHg 53%
    11:00 +22°C° 0 mm 3 mps 758 mmHg 47%
    12:00 +24°C° 0 mm 3 mps 758 mmHg 42%
    13:00 +25°C° 0 mm 3 mps 757 mmHg 40%
    14:00 +25°C° 0 mm 3 mps 756 mmHg 37%
    15:00 +26°C° 0 mm 3 mps 755 mmHg 35%
    16:00 +25°C° 0 mm 3 mps 755 mmHg 39%
    17:00 +23°C° 0 mm 2 mps 755 mmHg 43%
    18:00 +20°C° 0 mm 2 mps 755 mmHg 47%
    19:00 +21°C° 0 mm 1 mps 755 mmHg 49%
    20:00 +20°C° 0 mm 1 mps 756 mmHg 51%
    21:00 +19°C° 0 mm 1 mps 756 mmHg 53%
    22:00 +19°C° 0 mm 1 mps 756 mmHg 54%
    23:00 +18°C° 0 mm 1 mps 756 mmHg 55%

    Day after tomorrow, 28 January, Tuesday

    Time Temperature Precipitation Wind Pressure Humidity
    00:00 +17°C° 0 mm 2 mps 756 mmHg 57%
    01:00 +16°C° 0 mm 1 mps 756 mmHg 59%
    02:00 +16°C° 0 mm 1 mps 755 mmHg 61%
    03:00 +15°C° 0 mm 1 mps 755 mmHg 63%
    04:00 +15°C° 0 mm 1 mps 755 mmHg 65%
    05:00 +15°C° 0 mm 1 mps 756 mmHg 67%
    06:00 +14°C° 0 mm 1 mps 756 mmHg 70%
    07:00 +16°C° 0 mm 1 mps 757 mmHg 64%
    08:00 +19°C° 0 mm 1 mps 758 mmHg 58%
    09:00 +20°C° 0 mm 2 mps 759 mmHg 53%
    10:00 +21°C° 0 mm 2 mps 758 mmHg 48%
    11:00 +24°C° 0 mm 2 mps 758 mmHg 43%
    12:00 +25°C° 0 mm 2 mps 758 mmHg 38%
    13:00 +26°C° 0 mm 2 mps 757 mmHg 36%
    14:00 +27°C° 0 mm 3 mps 757 mmHg 34%
    15:00 +28°C° 0 mm 3 mps 756 mmHg 33%
    16:00 +26°C° 0 mm 3 mps 756 mmHg 36%
    17:00 +25°C° 0 mm 2 mps 756 mmHg 39%
    18:00 +23°C° 0 mm 1 mps 756 mmHg 43%
    19:00 +21°C° 0 mm 2 mps 756 mmHg 45%
    20:00 +21°C° 0 mm 2 mps 757 mmHg 47%
    21:00 +20°C° 0 mm 2 mps 757 mmHg 49%
    22:00 +20°C° 0 mm 2 mps 757 mmHg 50%
    23:00 +19°C° 0 mm 2 mps 757 mmHg 51%

    29 January, Wednesday

    Time Temperature Precipitation Wind Pressure Humidity
    00:00 +19°C° 0 mm 2 mps 758 mmHg 52%
    01:00 +19°C° 0 mm 2 mps 757 mmHg 53%
    02:00 +19°C° 0 mm 2 mps 757 mmHg 54%
    03:00 +18°C° 0 mm 2 mps 757 mmHg 56%
    04:00 +19°C° 0 mm 1 mps 757 mmHg 57%
    05:00 +18°C° 0 mm 1 mps 758 mmHg 58%
    06:00 +18°C° 0 mm 1 mps 758 mmHg 60%
    07:00 +20°C° 0 mm 1 mps 758 mmHg 56%
    08:00 +20°C° 0 mm 2 mps 759 mmHg 53%
    09:00 +21°C° 0 mm 3 mps 760 mmHg 49%
    10:00 +24°C° 0 mm 3 mps 760 mmHg 46%
    11:00 +25°C° 0 mm 3 mps 759 mmHg 43%
    12:00 +26°C° 0 mm 3 mps 759 mmHg 41%
    13:00 +27°C° 0 mm 3 mps 758 mmHg 39%
    14:00 +27°C° 0 mm 2 mps 757 mmHg 37%
    15:00 +28°C° 0 mm 2 mps 757 mmHg 35%
    16:00 +27°C° 0 mm 2 mps 757 mmHg 39%
    17:00 +25°C° 0 mm 2 mps 756 mmHg 43%
    18:00 +24°C° 0 mm 2 mps 756 mmHg 46%
    19:00 +22°C° 0 mm 3 mps 757 mmHg 48%
    20:00 +22°C° 0 mm 3 mps 757 mmHg 49%
    21:00 +21°C° 0 mm 3 mps 757 mmHg 50%
    22:00 +21°C° 0 mm 3 mps 757 mmHg 51%
    23:00 +21°C° 0 mm 3 mps 757 mmHg 51%

    30 January, Thursday

    Time Temperature Precipitation Wind Pressure Humidity
    00:00 +21°C° 0 mm 2 mps 757 mmHg 52%
    01:00 +21°C° 0.2 mm 2 mps 757 mmHg 57%
    02:00 +20°C° 0.2 mm 2 mps 757 mmHg 62%
    03:00 +21°C° 0.2 mm 1 mps 756 mmHg 67%
    04:00 +20°C° 0.6 mm 1 mps 756 mmHg 71%
    05:00 +20°C° 0.6 mm 1 mps 756 mmHg 76%
    06:00 +18°C° 0.6 mm 2 mps 756 mmHg 81%
    07:00 +19°C° 0.7 mm 2 mps 757 mmHg 77%
    08:00 +20°C° 0.7 mm 2 mps 758 mmHg 73%
    09:00 +21°C° 0.7 mm 3 mps 759 mmHg 69%
    10:00 +24°C° 0 mm 2 mps 758 mmHg 65%
    11:00 +25°C° 0 mm 2 mps 758 mmHg 61%
    12:00 +26°C° 0 mm 1 mps 757 mmHg 57%
    13:00 +27°C° 0.2 mm 2 mps 756 mmHg 55%
    14:00 +27°C° 0.2 mm 2 mps 756 mmHg 53%
    15:00 +28°C° 0.2 mm 2 mps 755 mmHg 51%
    16:00 +26°C° 0 mm 2 mps 755 mmHg 54%
    17:00 +25°C° 0 mm 2 mps 755 mmHg 58%
    18:00 +24°C° 0 mm 3 mps 755 mmHg 61%
    19:00 +23°C° 0 mm 2 mps 755 mmHg 63%
    20:00 +23°C° 0 mm 2 mps 756 mmHg 64%
    21:00 +21°C° 0 mm 2 mps 756 mmHg 65%
    22:00 +22°C° 0 mm 1 mps 757 mmHg 66%
    23:00 +21°C° 0 mm 1 mps 757 mmHg 67%

    31 January, Friday

    Time Temperature Precipitation Wind Pressure Humidity
    00:00 +21°C° 0 mm 1 mps 757 mmHg 69%
    01:00 +20°C° 0 mm 1 mps 756 mmHg 70%
    02:00 +20°C° 0 mm 1 mps 756 mmHg 71%
    03:00 +18°C° 0 mm 2 mps 756 mmHg 72%
    04:00 +18°C° 0 mm 2 mps 756 mmHg 72%
    05:00 +17°C° 0 mm 2 mps 756 mmHg 72%
    06:00 +17°C° 0 mm 2 mps 756 mmHg 72%
    07:00 +18°C° 0 mm 3 mps 757 mmHg 65%
    08:00 +19°C° 0 mm 3 mps 758 mmHg 58%
    09:00 +21°C° 0 mm 3 mps 758 mmHg 51%
    10:00 +22°C° 0 mm 3 mps 758 mmHg 47%
    11:00 +25°C° 0 mm 3 mps 758 mmHg 42%
    12:00 +26°C° 0 mm 3 mps 758 mmHg 37%
    13:00 +27°C° 0 mm 3 mps 757 mmHg 35%
    14:00 +27°C° 0 mm 4 mps 756 mmHg 33%
    15:00 +28°C° 0 mm 4 mps 756 mmHg 30%
    16:00 +26°C° 0 mm 4 mps 755 mmHg 33%
    17:00 +24°C° 0 mm 3 mps 755 mmHg 35%
    18:00 +22°C° 0 mm 3 mps 755 mmHg 38%
    19:00 +21°C° 0 mm 2 mps 756 mmHg 39%
    20:00 +20°C° 0 mm 2 mps 757 mmHg 40%
    21:00 +20°C° 0 mm 1 mps 757 mmHg 42%
    22:00 +18°C° 0 mm 2 mps 757 mmHg 43%
    23:00 +18°C° 0 mm 2 mps 757 mmHg 45%
    Show more